User: anonymous   Login
Location: Bayshore Village Mobile Home Park
(26.6945°N, 81.8642°W)
Time: 17:48:33
(UTC+00:00)
Language:

Cosmos 1726 - Orbit

View from above orbital plane
View from above orbital plane
View from above satellite
View from above satellite

Ground track
Ground track

The orbit data is extracted from the following two-line orbital elements,

1 16495U 86006A   21298.98461008  .00002873  00000-0  10945-3 0  9995
2 16495  82.4702 271.7721 0012593  15.6175 344.5448 15.26235430958849
Epoch (UTC): 25 October 2021 23:37:50
Eccentricity: 0.0012593
inclination: 82.4702°
perigee height: 478 km
apogee height: 496 km
right ascension of ascending node: 271.7721°
argument of perigee: 15.6175°
revolutions per day: 15.26235430
mean anomaly at epoch: 344.5448°
orbit number at epoch: 95884

The dashed part of the orbit path shows where the satellite is in the earth's shadow,  

DLR